Time,TemperatureF,DewpointF,PressureIn,WindDirection,WindDirectionDegrees,WindSpeedMPH,WindSpeedGustMPH,Humidity,HourlyPrecipIn,Conditions,Clouds,dailyrainin,SolarRadiationWatts/m^2,SoftwareType,DateUTC
2015-03-27 00:23:00,40.0,35.0,-100.00,NW,321,4.0,5.0,83,-99.99,,,-99.99,0.300000,,2015-03-27 04:23:00,
2015-03-27 00:53:00,39.0,35.0,-100.00,NW,313,3.0,5.0,85,-99.99,,,-99.99,0.200000,,2015-03-27 04:53:00,
2015-03-27 01:23:00,40.0,35.0,-100.00,NW,326,3.0,5.0,84,-99.99,,,-99.99,0.200000,,2015-03-27 05:23:00,
2015-03-27 01:52:00,39.0,35.0,-100.00,NW,306,2.0,3.0,84,-99.99,,,-99.99,0.200000,,2015-03-27 05:52:00,
2015-03-27 02:22:00,38.0,34.0,-100.00,NNE,18,2.0,3.0,87,-99.99,,,-99.99,0.000000,,2015-03-27 06:22:00,
2015-03-27 02:52:00,38.0,35.0,-100.00,North,-9999,0.0,0.0,88,-99.99,,,-99.99,0.200000,,2015-03-27 06:52:00,
2015-03-27 03:21:00,38.0,36.0,-100.00,West,270,0.0,1.0,91,-99.99,,,-99.99,0.000000,,2015-03-27 07:21:00,
2015-03-27 03:52:00,38.0,36.0,-100.00,WNW,294,4.0,5.0,93,-99.99,,,-99.99,0.200000,,2015-03-27 07:52:00,
2015-03-27 04:21:00,38.0,35.0,-100.00,NW,306,4.0,6.0,88,-99.99,,,-99.99,0.200000,,2015-03-27 08:21:00,
2015-03-27 04:52:00,39.0,33.0,-100.00,NW,316,6.0,9.0,81,-99.99,,,-99.99,0.300000,,2015-03-27 08:52:00,
2015-03-27 05:21:00,38.0,33.0,-100.00,NNW,331,7.0,14.0,82,-99.99,,,-99.99,0.200000,,2015-03-27 09:21:00,
2015-03-27 05:52:00,36.0,32.0,-100.00,NNW,343,4.0,7.0,84,-99.99,,,-99.99,0.300000,,2015-03-27 09:52:00,
2015-03-27 06:22:00,35.0,32.0,-100.00,North,349,6.0,9.0,87,-99.99,,,-99.99,0.200000,,2015-03-27 10:22:00,
2015-03-27 06:52:00,34.0,31.0,-100.00,North,4,5.0,9.0,88,-99.99,,,-99.99,0.000000,,2015-03-27 10:52:00,
2015-03-27 07:22:00,33.0,30.0,-100.00,North,355,4.0,7.0,88,-99.99,,,-99.99,0.200000,,2015-03-27 11:22:00,
2015-03-27 07:52:00,33.0,30.0,-100.00,North,355,4.0,9.0,87,-99.99,,,-99.99,3.000000,,2015-03-27 11:52:00,
2015-03-27 08:22:00,33.0,28.0,-100.00,North,5,5.0,7.0,84,-99.99,,,-99.99,50.099998,,2015-03-27 12:22:00,
2015-03-27 08:52:00,34.0,28.0,-100.00,North,0,6.0,9.0,77,-99.99,,,-99.99,140.199997,,2015-03-27 12:52:00,
2015-03-27 09:21:00,36.0,26.0,-100.00,NNE,21,6.0,13.0,67,-99.99,,,-99.99,241.300003,,2015-03-27 13:21:00,
2015-03-27 09:52:00,37.0,26.0,-100.00,North,358,8.0,13.0,64,-99.99,,,-99.99,341.299988,,2015-03-27 13:52:00,
2015-03-27 10:21:00,38.0,26.0,-100.00,North,8,10.0,15.0,63,-99.99,,,-99.99,446.399994,,2015-03-27 14:21:00,
2015-03-27 10:52:00,38.0,27.0,-100.00,NNE,20,8.0,12.0,63,-99.99,,,-99.99,572.500000,,2015-03-27 14:52:00,
2015-03-27 11:21:00,39.0,26.0,-100.00,North,6,6.0,12.0,59,-99.99,,,-99.99,635.799988,,2015-03-27 15:21:00,
2015-03-27 11:53:00,41.0,28.0,-100.00,North,2,5.0,9.0,60,-99.99,,,-99.99,544.799988,,2015-03-27 15:53:00,